Location: Newark
(35.8833°N, 14.5000°E)
Time: 15:21:31
(UTC+00:00)

BEESAT - Visible Passes

Search period start: 12 November 2019 00:00
Search period end: 22 November 2019 00:00
Orbit: 700 x 709 km, 98.6° (Epoch: 11 November)

Date Brightness Start Highest point End Pass type
(mag) Time Alt. Az. Time Alt. Az. Time Alt. Az.
12 Nov ? 03:31:55 10° SSE 03:36:38 71° ENE 03:40:37 15° N visible
12 Nov ? 17:12:33 10° N 17:16:47 33° WNW 17:21:01 10° SW visible
13 Nov ? 02:39:20 10° ESE 02:42:40 19° ENE 02:45:23 12° NNE visible
13 Nov ? 04:15:41 10° SSW 04:20:06 38° W 04:24:18 11° NNW visible
13 Nov ? 16:17:55 10° NNE 16:22:39 63° ESE 16:27:21 10° S visible
13 Nov ? 17:57:53 10° NW 17:59:48 12° WNW 18:01:43 10° W visible
14 Nov ? 03:21:12 10° SSE 03:25:48 53° ENE 03:29:04 19° N visible
14 Nov ? 05:01:34 10° WSW 05:03:49 13° W 05:06:05 10° WNW visible
14 Nov ? 17:01:30 10° N 17:05:59 43° WNW 17:10:29 10° SW visible
15 Nov ? 02:29:17 10° E 02:31:56 15° ENE 02:33:53 12° NE visible
15 Nov ? 04:04:35 10° S 04:09:12 51° W 04:12:48 16° NNW visible
15 Nov ? 17:46:12 10° NNW 17:49:05 16° WNW 17:51:57 10° WSW visible
16 Nov ? 03:10:34 10° SE 03:15:00 40° ENE 03:17:38 21° NNE visible
16 Nov ? 04:49:41 10° SW 04:52:51 18° W 04:56:02 10° NW visible
16 Nov ? 16:50:30 10° N 16:55:10 58° WNW 16:59:50 10° SSW visible
17 Nov ? 02:19:42 10° E 02:21:12 11° ENE 02:22:27 10° NE visible
17 Nov ? 03:53:36 10° S 03:58:19 69° WSW 04:01:22 22° NNW visible
17 Nov ? 17:34:49 10° NNW 17:38:19 21° WNW 17:41:50 10° WSW visible
18 Nov ? 03:00:03 10° SE 03:04:12 31° ENE 03:06:13 22° NNE visible
18 Nov ? 04:38:08 10° SSW 04:41:54 23° W 04:45:08 12° NW visible
18 Nov ? 16:39:34 10° N 16:44:20 77° WNW 16:49:05 10° SSW visible
19 Nov ? 03:42:42 10° SSE 03:47:27 89° E 03:50:00 28° NNW visible
19 Nov ? 17:23:36 10° NNW 17:27:33 27° WNW 17:31:31 10° SW visible
20 Nov ? 02:49:39 10° ESE 02:53:25 24° ENE 02:54:51 21° NE visible
20 Nov ? 04:26:48 10° SSW 04:30:58 30° W 04:33:47 17° NW visible
20 Nov ? 16:28:42 10° NNE 16:33:29 81° ESE 16:38:14 10° S visible
21 Nov ? 03:31:54 10° SSE 03:36:36 68° ENE 03:38:40 33° N visible
21 Nov ? 05:14:28 10° W 05:14:45 10° W 05:15:01 10° W visible
21 Nov ? 17:12:28 10° N 17:16:46 35° WNW 17:21:03 10° SW visible
